[[{"header":{"parameterUnit":"m.s-1","parameterCategory":1,"la1":30.2991,"la2":30.254,"lo1":-89.0895,"lo2":-89.0444,"dy":0.0017,"dx":0.0017,"nx":28,"ny":28,"refTime":"2025-07-02T21:00:00:Z","depth":0,"parameterNumber":2,"parameterNumberName":"U-component_of_WINDS"},"data":[0,0,0,0,0,0,0,0,0,0,0,0,0,0,0,0,0,0,0,0,0,0,0,0,0,0,0,0,0,0,0,0,0,0,0,0,0,0,0,0,0,0,0,0,0,0,0,0,0,0,0,0,0,0,0,0,0,0,-1.0063,-1.0064,0,-1.0144,-1.0145,-1.0146,-1.0095,-1.0092,-1.009,-1.0088,-1.0172,-1.0177,-1.0181,0,0,0,0,0,0,0,0,0,0,0,0,0,-0.9865,-0.9869,-1.0063,-1.0064,-1.0065,-1.0144,-1.0145,-1.0147,-1.0095,-1.0092,-1.0089,-1.0087,-1.0171,-1.0176,-1.0181,0,0,0,0,0,0,0,0,0,0,0,0,0,-0.9949,-0.987,-1.0063,-1.0049,-1.0049,-1.0144,-1.0145,-1.0147,-1.0096,-1.0092,-1.0089,-1.0085,-1.0169,-1.0176,-1.0182,-1.0296,0,0,-1.0203,-1.0206,0,0,0,0,0,0,0,0,-0.9945,-0.9957,-1.005,-1.005,-1.005,-1.0106,-1.0106,-1.0197,-1.0097,-1.0078,-1.0088,-1.0084,-1.0153,-1.0161,-1.0184,-1.03,-1.0304,-1.0203,-1.0207,-1.021,-1.0212,0,0,0,0,0,0,0,-0.9939,-0.9953,-1.0095,-1.0052,-1.0052,-1.0039,-1.0047,-1.0123,-1.0135,-1.0079,-1.0076,-1.0086,-1.0152,-1.0178,-1.0186,-1.0305,-1.0203,-1.0209,-1.0213,-1.0216,-1.0519,-1.0523,0,0,0,0,0,0,-0.9934,-0.9948,-1.0093,-1.0098,-0.9987,-1.0046,-1.0055,-1.0092,-1.0134,-1.0137,-1.0089,-1.0083,-1.0168,-1.0178,-1.0189,-1.0326,-1.021,-1.0217,-1.022,-1.0515,-1.052,-1.0525,0,0,0,0,0,0,-0.993,-0.9947,-1.0089,-1.0022,-1.0039,-1.0053,-1.0095,-1.0095,-1.012,-1.0141,-1.0143,-1.0113,-1.0166,-1.0179,-1.027,-1.0328,-1.022,-1.0226,-1.0511,-1.0517,-1.0522,-1.0601,0,0,0,0,0,0,-0.9924,-0.9946,-0.9989,-1.0024,-1.0043,-1.017,-1.0098,-1.0099,-1.0132,-1.0125,-1.0164,-1.0167,-1.0164,-1.026,-1.0277,-1.0335,-1.0231,-1.0505,-1.0513,-1.052,-1.0593,-1.0609,-1.0622,0,0,0,0,0,-0.9918,-1.0008,-0.9992,-1.001,-1.0097,-1.0173,-1.0184,-1.0178,-1.0137,-1.0181,-1.0194,-1.0166,-1.0318,-1.027,-1.0288,-1.035,-1.0502,-1.0511,-1.052,-1.0587,-1.0606,-1.0622,0,0,0,0,0,0,-0.9981,-1.0012,-0.9995,-1.0099,-1.0134,-1.0164,-1.0219,-1.0198,-1.0246,-1.0238,-1.0228,-1.0238,-1.0333,-1.035,-1.0295,-1.0462,-1.0404,-1.0417,-1.0448,-1.0467,-1.0481,-1.0476,-1.0237,0,0,0,0,0,-1.0007,-1.0065,-1.009,-1.0179,-1.0198,-1.0206,-1.0238,-1.0231,-1.0266,-1.0281,-1.0301,-1.0337,-1.0393,-1.043,-1.0483,-1.0595,-1.0603,-1.0646,-1.066,-1.0672,-1.0684,-1.0746,-1.0765,-1.0554,-1.0554,-1.0554,0,0,-1.0062,-1.0086,-1.0123,-1.0193,-1.0219,-1.028,-1.0218,-1.0286,-1.0331,-1.0291,-1.0379,-1.0394,-1.0434,-1.0536,-1.0582,-1.0553,-1.0744,-1.0684,-1.0693,-1.0699,-1.0757,-1.0777,-1.0795,-1.056,-1.0559,-1.0558,0,0,-1.0193,-1.0216,-1.0294,-1.0322,-1.0362,-1.0366,-1.0385,-1.0419,-1.0428,-1.0515,-1.0487,-1.0541,-1.0637,-1.0667,-1.0695,-1.0838,-1.0814,-1.0855,-1.0931,-1.0991,-1.1008,-1.1023,-1.1075,-1.1094,-1.0866,-1.0866,-1.0867,0,-1.0256,-1.0347,-1.0337,-1.0407,-1.0439,-1.0405,-1.0484,-1.0511,-1.0567,-1.059,-1.0556,-1.0677,-1.0701,-1.0811,-1.0845,-1.0868,-1.089,-1.0851,-1.1006,-1.1021,-1.1035,-1.1084,-1.1104,-1.0871,-1.0871,-1.087,-1.087,0,-1.0423,-1.0487,-1.0545,-1.0599,-1.0637,-1.0712,-1.0714,-1.0754,-1.0743,-1.0751,-1.0841,-1.0868,-1.0927,-1.0951,-1.0941,-1.106,-1.1041,-1.1007,-1.0948,-1.106,-1.1107,-1.1125,-1.0878,-1.0877,-1.0875,-1.0874,0,0,-1.0598,-1.0646,-1.0667,-1.0692,-1.0734,-1.0783,-1.0856,-1.0912,-1.0947,-1.0986,-1.1048,-1.113,-1.11,-1.1131,-1.1124,-1.1176,-1.1289,-1.1136,-1.1137,-1.1165,-1.1423,-1.145,-1.1472,-1.1273,-1.1276,-1.1279,-1.142,0,-1.0733,-1.086,-1.0853,-1.0973,-1.1032,-1.1,-1.1064,-1.1097,-1.1106,-1.1158,-1.1169,-1.1228,-1.1182,-1.1201,-1.1251,-1.1265,-1.1341,-1.1254,-1.1332,-1.1334,-1.1325,-1.1496,-1.1524,-1.1656,-1.1438,-1.1441,-1.1444,0,-1.0907,-1.0953,-1.1078,-1.1112,-1.1136,-1.1193,-1.1245,-1.1295,-1.1332,-1.1335,-1.137,-1.1354,-1.1429,-1.1367,-1.147,-1.1411,-1.1441,-1.1453,-1.1458,-1.1466,-1.1397,-1.1511,-1.1698,-1.1718,-1.1472,-1.147,-1.1468,0,-1.1024,-1.1116,-1.1204,-1.1225,-1.1266,-1.1307,-1.1326,-1.1359,-1.1394,-1.1439,-1.1462,-1.1515,-1.1545,-1.1586,-1.1586,-1.154,-1.1691,-1.1628,-1.1696,-1.1697,-1.1731,-1.1729,-1.1927,-1.1748,-1.1748,-1.1747,-1.1747,0,-1.1177,-1.1255,-1.1257,-1.1311,-1.1398,-1.139,-1.1476,-1.1491,-1.1521,-1.1577,-1.1552,-1.1606,-1.1601,-1.1655,-1.1655,-1.1741,-1.1754,-1.1759,-1.1759,-1.1763,-1.1763,-1.1784,-1.1776,-1.1753,-1.1751,-1.175,-1.175,0,-1.1322,-1.1327,-1.142,-1.1451,-1.1461,-1.1524,-1.155,-1.1602,-1.1609,-1.1681,-1.1697,-1.1709,-1.1772,-1.1774,-1.1846,-1.1846,-1.1952,-1.194,-1.194,-1.1938,-1.2007,-1.2001,-1.2228,-1.2257,-1.2057,-1.2059,-1.2061,0,-1.142,-1.148,-1.1517,-1.1554,-1.1575,-1.1633,-1.1669,-1.1663,-1.1701,-1.1747,-1.1794,-1.1854,-1.1902,-1.2003,-1.2019,-1.2074,-1.2064,-1.214,-1.2072,-1.2075,-1.2067,-1.2065,-1.2071,-1.2153,-1.2156,-1.2157,-1.2159,0,-1.1594,-1.1593,-1.1645,-1.1698,-1.1741,-1.1783,-1.1821,-1.1852,-1.1851,-1.1895,-1.1959,-1.1996,-1.207,-1.213,-1.2184,-1.2204,-1.2182,-1.218,-1.2199,-1.2205,-1.2203,-1.2206,-1.1977,-1.2175,-1.2173,-1.2172,-1.2171,-1.2171,-1.172,-1.1772,-1.1807,-1.1866,-1.1894,-1.1931,-1.1981,-1.1994,-1.2048,-1.2107,-1.21,-1.2172,-1.2207,-1.2277,-1.2301,-1.2357,-1.2331,-1.2358,-1.2366,-1.2373,-1.2381,-1.2192,-1.2366,-1.2366,-1.2366,-1.2365,-1.2365,0,-1.1894,-1.1915,-1.1969,-1.2024,-1.2071,-1.2045,-1.2086,-1.2127,-1.219,-1.2225,-1.2273,-1.2347,-1.2405,-1.2425,-1.2482,-1.2523,-1.2515,-1.2538,-1.2536,-1.2542,-1.24,-1.2379,-1.2544,-1.2544,-1.2544,-1.2544,-1.2544,-1.2544,-1.199,-1.2077,-1.2081,-1.2182,-1.2202,-1.2272,-1.2298,-1.2332,-1.236,-1.2443,-1.2492,-1.2504,-1.2533,-1.2592,-1.2645,-1.2649,-1.2672,-1.2701,-1.2701,-1.2569,-1.2551,-1.2534,-1.2514,-1.2705,-1.2706,-1.2838,-1.2839,-1.284]},{"header":{"parameterUnit":"m.s-1","parameterCategory":1,"la1":30.2991,"la2":30.254,"lo1":-89.0895,"lo2":-89.0444,"dy":0.0017,"dx":0.0017,"nx":28,"ny":28,"refTime":"2025-07-02T21:00:00:Z","depth":0,"parameterNumber":3,"parameterNumberName":"V-component_of_WINDS"},"data":[0,0,0,0,0,0,0,0,0,0,0,0,0,0,0,0,0,0,0,0,0,0,0,0,0,0,0,0,0,0,0,0,0,0,0,0,0,0,0,0,0,0,0,0,0,0,0,0,0,0,0,0,0,0,0,0,0,0,-2.4837,-2.4837,0,-2.4856,-2.4857,-2.4857,-2.4811,-2.481,-2.4808,-2.4807,-2.4827,-2.4828,-2.483,0,0,0,0,0,0,0,0,0,0,0,0,0,-2.4759,-2.476,-2.4837,-2.4837,-2.4837,-2.4856,-2.4857,-2.4857,-2.4811,-2.481,-2.4808,-2.4806,-2.4826,-2.4828,-2.483,0,0,0,0,0,0,0,0,0,0,0,0,0,-2.4787,-2.4761,-2.4837,-2.4817,-2.4815,-2.4856,-2.4857,-2.4857,-2.4812,-2.481,-2.4807,-2.4805,-2.4825,-2.4828,-2.4831,-2.4892,0,0,-2.4839,-2.4841,0,0,0,0,0,0,0,0,-2.4785,-2.479,-2.482,-2.4818,-2.4817,-2.4829,-2.4836,-2.4869,-2.4812,-2.4813,-2.4807,-2.4804,-2.4829,-2.4832,-2.484,-2.4893,-2.4894,-2.484,-2.4841,-2.4843,-2.4843,0,0,0,0,0,0,0,-2.4783,-2.4789,-2.4845,-2.482,-2.4818,-2.4807,-2.4808,-2.4842,-2.4833,-2.4813,-2.481,-2.4813,-2.4828,-2.4837,-2.484,-2.4894,-2.484,-2.4842,-2.4844,-2.4845,-2.4996,-2.4999,0,0,0,0,0,0,-2.4784,-2.4787,-2.4844,-2.4845,-2.4795,-2.481,-2.4812,-2.4827,-2.4833,-2.4831,-2.4815,-2.481,-2.4834,-2.4837,-2.4841,-2.4912,-2.4843,-2.4845,-2.4847,-2.4994,-2.4997,-2.4999,0,0,0,0,0,0,-2.4783,-2.479,-2.4843,-2.4815,-2.4821,-2.4813,-2.4832,-2.4829,-2.4838,-2.4834,-2.4832,-2.4826,-2.4832,-2.4837,-2.4879,-2.4912,-2.4846,-2.4849,-2.4991,-2.4995,-2.4998,-2.5055,0,0,0,0,0,0,-2.4781,-2.4789,-2.4813,-2.4816,-2.4823,-2.4882,-2.4834,-2.4831,-2.4843,-2.4838,-2.4844,-2.4843,-2.4831,-2.4875,-2.4882,-2.4915,-2.4851,-2.4988,-2.4993,-2.4997,-2.505,-2.506,-2.5068,0,0,0,0,0,-2.4778,-2.4828,-2.4814,-2.4821,-2.4852,-2.4884,-2.4888,-2.4873,-2.4846,-2.4869,-2.4866,-2.4843,-2.4907,-2.488,-2.4887,-2.4921,-2.4986,-2.4992,-2.4997,-2.5046,-2.5058,-2.5068,0,0,0,0,0,0,-2.4829,-2.4829,-2.4813,-2.4866,-2.4875,-2.4876,-2.4905,-2.4886,-2.4903,-2.4898,-2.4878,-2.488,-2.4926,-2.4928,-2.4898,-2.498,-2.4942,-2.4949,-2.4977,-2.4989,-2.4997,-2.4996,-2.4854,0,0,0,0,0,-2.4847,-2.4873,-2.4871,-2.4918,-2.4923,-2.4913,-2.4927,-2.4914,-2.4923,-2.4927,-2.4927,-2.4936,-2.4958,-2.4974,-2.4994,-2.505,-2.505,-2.5077,-2.5086,-2.5093,-2.51,-2.5129,-2.514,-2.5017,-2.5017,-2.5017,0,0,-2.4883,-2.4886,-2.4904,-2.4928,-2.4934,-2.4961,-2.4917,-2.4948,-2.4967,-2.4931,-2.4971,-2.4972,-2.4981,-2.503,-2.5052,-2.5033,-2.5134,-2.51,-2.5106,-2.5108,-2.5135,-2.5147,-2.5157,-2.502,-2.502,-2.5019,0,0,-2.4963,-2.4968,-2.5008,-2.5014,-2.5023,-2.5016,-2.5026,-2.5029,-2.5028,-2.5068,-2.5041,-2.5064,-2.5103,-2.511,-2.5119,-2.52,-2.5179,-2.5207,-2.5255,-2.5284,-2.5293,-2.5302,-2.533,-2.5341,-2.5214,-2.5214,-2.5214,0,-2.5007,-2.5047,-2.503,-2.5062,-2.5073,-2.5042,-2.5081,-2.5088,-2.5103,-2.5112,-2.509,-2.5137,-2.5141,-2.5192,-2.5211,-2.522,-2.5229,-2.5207,-2.5293,-2.5302,-2.5309,-2.5336,-2.5347,-2.5217,-2.5217,-2.5216,-2.5216,0,-2.5101,-2.5129,-2.5159,-2.5175,-2.5189,-2.5225,-2.5212,-2.5229,-2.5215,-2.521,-2.525,-2.5254,-2.5274,-2.5285,-2.5271,-2.5333,-2.5321,-2.5297,-2.5258,-2.5325,-2.535,-2.536,-2.5222,-2.5221,-2.522,-2.5219,0,0,-2.5215,-2.5219,-2.5231,-2.5237,-2.5244,-2.5265,-2.5299,-2.5318,-2.5332,-2.5344,-2.5371,-2.5404,-2.5381,-2.5391,-2.5379,-2.5404,-2.5467,-2.5376,-2.5376,-2.5393,-2.5534,-2.5552,-2.5565,-2.5453,-2.5455,-2.5456,-2.5533,0,-2.5294,-2.5352,-2.5336,-2.5394,-2.5419,-2.5389,-2.5418,-2.5425,-2.5421,-2.5441,-2.5437,-2.546,-2.5429,-2.5435,-2.5458,-2.5455,-2.5495,-2.5449,-2.5478,-2.5479,-2.5477,-2.5578,-2.5597,-2.567,-2.5543,-2.5545,-2.5546,0,-2.5394,-2.5408,-2.5468,-2.547,-2.548,-2.5507,-2.5523,-2.5543,-2.555,-2.5545,-2.5556,-2.5538,-2.557,-2.5531,-2.5576,-2.5544,-2.5555,-2.5555,-2.5557,-2.5559,-2.5517,-2.5582,-2.5692,-2.5703,-2.5561,-2.556,-2.5559,0,-2.547,-2.5505,-2.5545,-2.5551,-2.5555,-2.5574,-2.5576,-2.5581,-2.5594,-2.5607,-2.5615,-2.5632,-2.5642,-2.5656,-2.5642,-2.5616,-2.5688,-2.5649,-2.5685,-2.5685,-2.5702,-2.5701,-2.5815,-2.5709,-2.5709,-2.5709,-2.5709,0,-2.556,-2.5598,-2.5579,-2.5604,-2.5645,-2.5627,-2.5668,-2.5667,-2.5671,-2.5695,-2.5669,-2.5692,-2.5673,-2.5694,-2.5684,-2.5721,-2.5726,-2.5723,-2.572,-2.5725,-2.5725,-2.5732,-2.5727,-2.5712,-2.5711,-2.571,-2.571,0,-2.5653,-2.5642,-2.5684,-2.5683,-2.5684,-2.5714,-2.5713,-2.5736,-2.573,-2.576,-2.5766,-2.5756,-2.5779,-2.5767,-2.5791,-2.5784,-2.5832,-2.5822,-2.583,-2.5827,-2.5864,-2.5861,-2.5986,-2.6002,-2.5886,-2.5887,-2.5888,0,-2.5711,-2.5739,-2.5741,-2.5755,-2.5759,-2.5782,-2.5794,-2.5776,-2.579,-2.58,-2.5821,-2.5841,-2.5857,-2.5895,-2.589,-2.5908,-2.5898,-2.5941,-2.59,-2.5905,-2.5898,-2.5897,-2.5899,-2.5949,-2.595,-2.5951,-2.5952,0,-2.5815,-2.5808,-2.5826,-2.5843,-2.5858,-2.587,-2.588,-2.5893,-2.5875,-2.5892,-2.5915,-2.5927,-2.595,-2.5971,-2.5986,-2.5988,-2.5967,-2.5965,-2.5974,-2.598,-2.5983,-2.5981,-2.5852,-2.5962,-2.5961,-2.596,-2.596,-2.5959,-2.5892,-2.5915,-2.592,-2.5941,-2.5947,-2.5956,-2.5977,-2.5973,-2.5992,-2.601,-2.5998,-2.6025,-2.603,-2.6048,-2.6053,-2.6073,-2.6056,-2.607,-2.6073,-2.6077,-2.6081,-2.598,-2.6076,-2.6075,-2.6075,-2.6075,-2.6075,0,-2.5994,-2.5996,-2.6015,-2.6029,-2.6046,-2.6024,-2.6034,-2.6049,-2.6073,-2.6079,-2.6095,-2.6121,-2.614,-2.6136,-2.6154,-2.6171,-2.6162,-2.6176,-2.6175,-2.6175,-2.6096,-2.6086,-2.6183,-2.6183,-2.6183,-2.6183,-2.6183,-2.6183,-2.605,-2.6088,-2.6081,-2.6121,-2.6122,-2.6148,-2.6155,-2.6163,-2.6168,-2.6198,-2.6214,-2.6211,-2.6213,-2.6231,-2.6248,-2.6246,-2.6253,-2.6271,-2.6266,-2.6192,-2.6181,-2.6171,-2.6161,-2.6273,-2.6273,-2.6344,-2.6344,-2.6345]}]]